Helicity
291 292 229 236 217 205 209 201 190 179 167 157 133 124 110 95 80 69 71 80 63 52 53 62 59 68 63 51 44 44 68 79 111 127 127 138 139 126 114 110 108 98 90
305 298 248 248 231 212 212 206 219 212 194 170 152 138 134 109 93 84 80 79 84 78 66 80 78 70 70 62 65 63 70 72 96 115 99 103 101 109 111 107 109 98 98
280 266 268 262 251 246 250 258 245 222 220 192 179 170 154 136 114 100 87 77 84 82 94 113 133 115 94 78 79 74 67 73 75 78 89 77 81 88 91 94 103 108 116
278 271 280 284 283 286 275 270 274 275 261 238 227 212 190 158 133 117 112 99 79 82 109 131 124 112 85 106 75 74 69 80 78 74 79 76 88 105 117 122 133 130 117
318 284 273 300 312 323 317 306 289 284 302 283 276 252 211 177 151 145 150 135 114 95 106 133 121 113 84 99 74 86 97 68 78 85 89 93 96 100 119 133 133 125 113
334 332 276 301 331 362 356 335 332 319 314 334 340 325 283 238 200 182 182 180 152 148 138 126 126 106 98 97 96 106 100 99 96 102 108 103 100 110 122 129 122 116 103
363 360 337 313 378 419 398 401 390 417 412 422 524 452 402 314 243 211 197 190 188 185 180 173 146 116 102 106 104 96 120 104 105 115 102 107 111 102 93 106 111 101 106
404 397 375 354 370 457 468 470 500 546 493 441 442 628 468 365 297 265 241 213 201 205 203 193 161 161 150 117 121 129 131 112 119 105 101 100 98 100 88 92 99 102 106
388 405 402 421 431 490 551 553 570 571 661 485 439 498 535 338 446 292 257 236 227 213 199 197 184 186 187 204 187 192 166 154 107 104 108 104 100 98 91 90 103 107 99
411 409 416 438 462 475 512 540 564 566 611 597 514 456 468 377 391 380 304 257 249 227 219 222 213 217 214 231 234 226 238 194 156 131 112 114 108 110 104 106 112 105 94
423 432 459 486 517 522 519 543 553 533 563 610 638 617 535 456 339 388 339 341 314 260 249 233 224 233 253 241 215 231 283 234 193 159 138 123 134 122 112 98 105 106 95
429 422 478 535 563 554 604 596 577 574 575 524 527 549 601 679 538 480 406 308 337 298 281 268 235 239 228 237 242 252 261 268 257 205 157 141 124 128 120 113 112 116 107
478 453 483 525 582 594 598 642 617 605 615 589 577 588 554 499 468 516 437 321 364 373 333 247 240 239 226 250 257 241 276 290 294 257 195 166 146 126 122 130 125 121 102
474 488 505 485 496 553 574 617 636 611 609 592 544 549 555 542 555 549 610 554 451 397 375 345 267 245 238 246 251 252 275 310 302 267 234 184 149 133 142 138 135 121 114
406 450 523 554 544 570 613 595 661 623 588 585 600 578 550 562 563 570 524 463 530 450 328 282 338 259 301 304 289 263 243 281 268 232 207 213 171 142 133 148 131 124 117
414 480 513 566 573 583 597 617 644 606 659 626 635 592 604 566 558 593 561 494 426 425 409 357 371 311 325 361 289 246 247 248 297 307 300 266 190 154 150 161 136 127 121
410 508 561 540 565 601 526 568 540 614 641 656 674 611 608 519 593 577 580 530 546 508 515 511 432 389 423 476 443 292 236 297 337 310 292 262 219 178 147 156 142 136 125
358 500 584 642 666 608 623 555 520 619 661 542 705 588 547 480 451 534 648 557 591 507 604 485 550 618 581 591 536 484 430 355 345 278 303 256 248 205 164 167 164 136 124
398 485 536 563 583 657 564 548 567 624 778 713 765 426 537 629 511 540 590 603 616 649 643 615 604 538 521 566 541 457 437 355 296 310 231 222 207 164 127 136 136 124 123
459 509 558 574 585 601 624 595 647 681 698 520 525 577 546 588 643 562 558 556 616 630 568 503 522 546 585 565 459 535 477 420 396 316 212 209 217 206 93 112 113 109 98
446 544 614 643 698 672 675 681 610 598 475 498 556 621 788 663 575 506 491 494 530 586 542 569 579 592 597 542 488 457 484 426 401 308 227 215 227 99 125 125 118 97 91
333 438 495 704 524 559 523 586 585 538 557 576 527 529 583 445 412 316 318 429 508 566 537 614 619 601 519 451 494 516 528 518 458 221 236 234 128 117 131 124 103 99 89
392 440 461 468 441 510 608 525 493 535 557 615 563 525 449 337 320 300 356 368 397 360 467 520 466 474 527 534 539 485 432 481 340 305 292 248 157 138 147 149 118 85 75
310 418 384 474 468 427 400 486 530 550 438 429 355 359 359 341 317 348 375 359 338 323 343 404 432 419 449 540 436 469 484 443 408 299 251 210 229 247 185 141 83 84 79
305 339 357 291 308 305 307 394 407 359 350 334 290 346 329 284 269 252 271 289 334 356 317 312 347 283 349 413 464 511 453 436 358 286 260 322 263 255 189 175 139 78 76
224 263 302 184 197 258 330 341 319 244 320 287 300 278 244 199 203 253 254 286 282 294 336 334 307 278 318 382 408 294 373 342 393 338 319 381 282 311 305 170 164 139 118
Wind_Speed
22 19 18 17 17 15 14 12 9 8 5 4 7 9 8 9 12 13 14 16 18 20 22 24 26 28 29 31 33 34 36 36 38 37 34 32 32 31 31 31 31 32 32
25 23 21 20 20 18 15 13 12 11 8 5 3 4 5 7 9 11 12 14 16 18 19 21 23 25 27 29 31 33 34 35 36 36 33 30 30 30 31 32 32 32 32
29 27 24 23 23 21 18 15 13 11 9 7 5 2 1 3 6 8 10 12 13 15 17 18 21 22 24 26 29 31 33 33 34 33 32 29 29 29 30 31 32 33 33
33 31 29 27 26 24 22 20 18 16 13 11 9 7 6 3 4 5 7 8 10 11 14 15 17 19 21 24 25 28 30 31 32 32 32 30 28 29 30 30 32 33 33
37 35 34 31 28 27 25 24 21 20 18 15 12 10 9 7 5 7 6 6 8 9 11 12 14 16 17 19 20 24 28 27 29 31 32 31 29 28 29 30 31 32 33
41 39 37 35 33 31 29 27 26 22 21 18 14 12 12 13 13 11 9 7 7 7 9 9 11 14 14 16 17 20 23 24 26 28 30 30 30 29 29 30 31 32 33
47 44 41 39 38 37 35 32 28 27 24 22 17 18 23 22 20 17 14 11 10 9 8 7 9 11 12 12 15 16 19 20 23 25 27 29 29 29 29 29 30 31 33
52 50 47 45 43 40 39 38 35 30 28 32 27 24 30 34 31 25 21 17 14 13 11 10 9 11 11 12 10 12 15 18 20 22 24 25 26 27 27 28 29 31 33
53 55 53 50 48 46 47 46 43 42 38 39 34 29 32 35 29 32 27 23 19 17 16 15 13 13 12 14 13 12 12 15 17 20 22 24 25 25 26 27 29 30 32
56 58 58 55 54 51 52 53 50 48 43 48 40 40 37 26 33 36 33 27 25 23 20 18 15 14 12 11 13 14 11 13 15 17 19 21 23 25 26 27 29 30 31
59 60 60 60 59 57 56 57 57 56 52 52 52 46 41 37 33 36 35 32 30 29 25 21 18 15 13 11 13 15 14 14 14 15 17 19 21 21 24 26 27 29 31
60 62 64 64 63 62 61 60 60 63 61 57 56 54 52 47 42 42 40 33 33 31 27 25 22 19 17 15 14 12 13 16 18 17 18 19 20 21 22 25 26 28 29
59 62 65 68 68 68 65 63 63 62 63 66 66 63 59 56 46 44 36 34 37 36 35 31 27 23 20 18 14 10 10 12 12 13 17 17 22 23 25 25 26 26 27
60 60 64 66 70 70 69 67 68 67 66 67 68 67 65 62 57 50 46 39 39 42 40 38 31 28 24 23 17 14 9 10 13 17 18 17 14 22 26 27 25 26 26
69 62 63 66 67 69 70 70 72 73 71 70 71 71 70 67 63 58 51 46 45 50 47 40 37 33 28 26 21 19 14 16 17 17 15 16 20 23 29 25 26 23 24
70 67 66 67 66 66 69 71 77 77 76 73 70 73 73 70 66 63 59 54 50 48 50 42 39 32 31 27 21 25 22 18 21 23 23 21 18 20 21 23 24 23 21
74 72 69 71 72 70 72 74 78 76 83 80 74 70 73 68 68 66 62 58 54 50 46 41 36 28 29 27 21 28 25 22 20 20 15 15 12 10 16 19 19 19 20
74 75 75 72 74 77 71 74 77 79 82 82 74 76 72 61 60 61 58 59 54 49 45 39 33 34 37 32 27 25 22 20 19 16 13 12 10 9 11 18 17 17 19
71 73 74 75 75 80 82 78 76 80 75 71 70 75 56 55 59 61 55 55 47 47 43 40 46 36 33 31 29 27 22 20 20 15 13 13 12 14 14 15 15 15 17
67 68 71 78 76 76 78 79 74 67 65 68 65 61 63 58 60 64 55 53 46 50 44 41 43 36 35 33 29 28 24 22 22 19 17 17 16 16 16 16 18 16 15
63 64 65 68 74 75 79 63 63 67 62 64 62 57 57 64 52 54 53 51 45 47 47 42 41 36 36 34 36 31 28 24 23 21 19 18 18 18 18 17 15 14 16
62 56 57 63 64 70 72 71 64 65 64 67 64 59 55 55 53 59 50 49 45 44 47 43 41 40 39 38 34 32 30 28 31 24 22 21 20 21 20 18 16 16 20
57 55 58 61 60 66 56 63 59 59 61 68 68 62 52 54 47 48 48 45 44 42 44 39 41 38 38 35 34 34 34 33 32 24 26 26 23 25 20 18 17 19 23
48 51 48 51 60 63 52 48 48 53 50 44 48 45 44 45 43 44 42 39 40 39 37 36 35 31 32 33 36 36 33 27 22 20 25 28 27 29 24 23 21 21 25
39 41 36 40 43 38 30 25 39 31 33 33 34 35 37 38 32 31 37 34 35 39 34 33 31 30 28 29 32 28 31 32 35 29 31 32 30 32 30 30 26 24 26
29 26 20 23 23 23 19 19 22 19 26 31 29 31 24 24 25 23 28 31 33 35 31 29 27 26 23 25 29 31 32 36 33 35 32 32 28 30 40 35 30 29 29
Wind_Direction
210 213 216 215 222 207 193 189 190 194 192 133 102 87 61 36 36 27 41 38 32 39 41 40 40 37 38 35 36 36 34 34 35 34 26 22 18 14 11 8 7 7 4
221 220 217 219 228 220 210 212 202 198 199 184 145 99 68 43 29 34 43 39 36 36 41 42 39 42 39 34 34 33 33 35 33 30 25 19 17 14 12 7 8 7 4
221 219 217 219 221 225 215 217 205 212 214 220 219 191 45 39 42 39 48 39 34 31 31 32 39 38 37 38 36 33 34 29 28 25 19 15 16 14 12 9 7 5 1
222 227 224 221 223 224 219 217 215 216 225 226 235 255 279 320 7 25 27 21 22 25 19 33 37 41 39 42 41 34 32 28 23 23 18 14 10 10 10 8 7 5 3
222 227 229 226 218 219 217 213 214 214 216 224 232 247 263 279 296 316 331 352 353 1 6 17 19 27 31 37 35 32 33 28 25 19 23 14 7 4 7 7 7 4 1
223 228 229 224 218 218 215 213 213 223 222 216 222 246 266 277 286 291 297 308 321 336 349 360 6 6 18 23 22 28 36 31 20 17 11 18 13 4 2 3 4 2 1
226 226 230 223 221 218 218 216 214 211 223 213 224 260 278 280 278 281 285 286 288 297 316 333 340 352 359 12 13 18 27 29 22 14 14 13 13 12 6 2 1 359 0
222 225 227 224 220 221 218 217 218 219 237 209 233 250 262 275 277 276 276 274 274 283 288 299 310 323 340 348 5 16 14 14 14 11 8 9 13 11 5 360 358 353 356
220 220 223 224 222 223 221 217 216 215 228 216 215 254 261 266 260 271 268 269 267 271 278 285 291 303 318 333 346 354 0 4 4 2 1 360 5 9 3 358 356 355 351
225 223 225 226 224 227 226 220 222 223 227 216 225 252 267 263 265 269 266 262 265 267 267 272 276 288 298 314 328 332 342 346 355 354 354 356 358 358 353 351 349 349 351
230 227 227 227 228 230 228 225 226 226 230 227 227 233 254 262 264 272 260 252 261 263 265 265 266 271 278 288 303 313 317 327 333 342 343 343 346 348 343 340 346 349 349
236 232 230 228 228 229 228 226 225 225 229 232 231 234 237 246 250 265 270 244 249 258 259 263 264 266 271 279 290 300 310 308 312 320 328 335 336 337 336 335 339 344 347
239 235 229 229 230 228 231 230 229 230 230 232 230 235 240 245 251 258 258 252 260 270 270 263 261 263 268 273 275 280 302 307 314 319 315 327 317 318 323 325 332 340 344
245 242 237 238 238 239 239 236 237 237 235 235 236 238 240 242 246 249 253 246 261 272 268 270 257 258 259 266 264 263 274 289 304 305 308 319 326 310 311 316 323 326 337
253 247 242 240 240 241 239 239 239 238 240 238 241 239 239 243 244 246 247 240 251 265 259 261 269 250 256 262 260 263 264 268 281 292 296 306 305 306 302 308 312 322 329
251 249 246 242 241 241 241 240 243 243 240 240 241 240 242 243 243 245 245 247 253 259 267 268 264 251 250 260 257 265 274 273 276 283 288 287 293 294 296 301 305 315 327
251 249 249 248 247 245 246 247 246 245 243 241 243 240 242 238 239 242 244 248 251 256 260 274 267 249 242 251 259 263 263 280 279 281 274 279 288 288 294 297 305 315 320
256 250 249 248 248 247 246 245 245 247 246 247 248 244 246 242 237 238 238 242 246 254 258 251 259 255 255 247 248 247 254 265 273 267 257 262 270 275 286 291 298 303 313
254 254 251 250 250 249 249 248 248 247 243 238 248 242 235 233 231 234 235 237 239 250 256 256 266 267 253 246 248 254 254 261 270 255 250 266 265 276 279 280 282 292 302
255 251 250 251 250 249 251 249 246 246 243 243 238 241 245 232 234 238 234 238 238 246 253 258 267 256 258 248 243 242 248 255 258 256 259 266 263 263 263 271 278 283 290
260 257 254 251 251 251 251 247 245 246 245 243 244 244 243 241 239 234 235 238 237 244 252 257 261 253 253 236 236 243 248 253 261 252 254 258 263 262 267 263 266 270 276
267 262 258 254 254 255 254 250 249 247 247 243 241 242 243 240 237 234 232 232 230 239 249 253 256 250 243 242 239 236 238 244 265 244 241 252 249 257 261 263 263 266 272
270 268 267 263 261 261 249 250 247 253 245 247 242 240 241 239 234 232 235 237 239 238 240 247 251 249 249 242 236 235 235 241 260 250 232 252 246 260 259 263 253 261 269
272 269 269 267 265 267 259 248 254 255 250 241 238 232 231 231 230 233 235 240 247 246 247 251 243 246 252 240 229 235 233 242 267 257 233 255 252 263 258 266 254 260 267
278 275 273 269 266 262 255 248 252 247 240 237 232 231 231 231 225 223 238 240 248 255 257 259 259 248 255 232 225 234 241 238 262 266 235 270 261 261 260 263 263 256 263
279 281 278 275 264 251 244 241 240 229 230 230 235 227 235 232 222 220 240 244 249 256 255 260 263 264 251 231 217 224 223 234 259 274 248 250 252 253 274 265 260 263 262